Weather History for KENW - November, 2011

Change the Weather History Date:

Tuesday, November 1, 2011

  Actual Average Record
Temperature  
Mean Temperature 50 °F -  
Max Temperature 64 °F 54 °F 80 °F (1950)
Min Temperature 36 °F 39 °F 22 °F (1984)
Degree Days  
Heating Degree Days 16    
Moisture  
Dew Point 37 °F    
Average Humidity 64    
Maximum Humidity 89    
Minimum Humidity 41    
Precipitation  
Precipitation 0.00 in - - ()
Sea Level Pressure  
Sea Level Pressure 30.08 in    
Wind  
Wind Speed 8 mph (South)    
Max Wind Speed 15 mph    
Max Gust Speed 23 mph    
Visibility 8 miles    
Events      
Averages and records for this station are not official NWS values.
T = Trace of Precipitation, MM = Missing Value Source: NWS Daily Summary

Daily Weather History Graph

Daily Weather History Graph

Search for Another Location

Airport or City:

Trip Planner

Search our weather history database for the weather conditions in past years. The results will help you decide how hot, cold, wet, or windy it might be!

Date:

Astronomy

Nov. 01, 2011 Rise Set
Actual Time 7:25 AM CDT 5:44 PM CDT
Civil Twilight 6:55 AM CDT 6:14 PM CDT
Nautical Twilight 6:22 AM CDT 6:47 PM CDT
Astronomical Twilight 5:49 AM CDT 7:20 PM CDT
Moon 1:13 PM CDT (11/1) 11:26 PM CDT (11/1)
Length of Visible Light 11h 18m
Length of Day
10h 19m
Waxing Crescent, 40% of the Moon is Illuminated
Nov 1
Waxing Crescent
Nov 2
First Quarter
Nov 10
Full
Nov 18
Last Quarter
Nov 25
New

Hourly Weather History & Observations

Time (CDT) Temp. Windchill Dew Point Humidity Pressure Visibility Wind Dir Wind Speed Gust Speed Precip Events Conditions
12:53 AM 37.0 °F 34.5 °F 34.0 °F 89% 30.14 in 4.0 mi South 3.5 mph - N/A   Clear
1:53 AM 37.0 °F 33.3 °F 34.0 °F 89% 30.15 in 4.0 mi South 4.6 mph - N/A   Clear
2:53 AM 36.0 °F 31.1 °F 33.1 °F 89% 30.15 in 4.0 mi South 5.8 mph - N/A   Clear
3:53 AM 36.0 °F 30.3 °F 32.0 °F 86% 30.15 in 5.0 mi South 6.9 mph - N/A   Clear
4:53 AM 37.0 °F 31.6 °F 33.1 °F 86% 30.15 in 5.0 mi South 6.9 mph - N/A   Clear
5:53 AM 37.0 °F 31.0 °F 33.1 °F 86% 30.14 in 5.0 mi South 8.1 mph - N/A   Clear
6:53 AM 37.9 °F 30.9 °F 33.1 °F 83% 30.15 in 6.0 mi South 10.4 mph - N/A   Haze
7:53 AM 37.9 °F 32.1 °F 33.1 °F 83% 30.15 in 6.0 mi South 8.1 mph - N/A   Haze
8:53 AM 41.0 °F 35.2 °F 34.0 °F 76% 30.15 in 6.0 mi South 9.2 mph - N/A   Haze
9:53 AM 46.9 °F - 36.0 °F 66% 30.14 in 6.0 mi South 11.5 mph - N/A   Haze
10:53 AM 52.0 °F - 35.1 °F 53% 30.13 in 8.0 mi South 11.5 mph - N/A   Clear
11:53 AM 55.9 °F - 35.1 °F 45% 30.10 in 10.0 mi South 13.8 mph 20.7 mph N/A   Clear
12:53 PM 59.0 °F - 35.1 °F 41% 30.07 in 10.0 mi South 11.5 mph - N/A   Clear
1:53 PM 61.0 °F - 37.0 °F 41% 30.04 in 10.0 mi South 15.0 mph - N/A   Clear
2:53 PM 63.0 °F - 39.9 °F 43% 30.02 in 10.0 mi SSW 11.5 mph 19.6 mph N/A   Clear
3:53 PM 63.0 °F - 42.1 °F 46% 30.01 in 10.0 mi South 13.8 mph - N/A   Clear
4:53 PM 62.1 °F - 43.0 °F 50% 30.01 in 10.0 mi South 9.2 mph - N/A   Clear
5:53 PM 59.0 °F - 43.0 °F 55% 30.00 in 10.0 mi South 9.2 mph - N/A   Clear
6:53 PM 55.9 °F - 43.0 °F 62% 30.01 in 9.0 mi South 8.1 mph - N/A   Clear
7:53 PM 54.0 °F - 43.0 °F 66% 30.02 in 8.0 mi South 6.9 mph - N/A   Clear
8:53 PM 57.0 °F - 43.0 °F 59% 30.02 in 9.0 mi South 9.2 mph - N/A   Clear
9:53 PM 59.0 °F - 42.1 °F 53% 30.02 in 10.0 mi South 11.5 mph - N/A   Clear
10:53 PM 59.0 °F - 39.0 °F 48% 30.02 in 10.0 mi SSW 15.0 mph 23.0 mph N/A   Clear
11:53 PM 57.9 °F - 37.9 °F 47% 30.02 in 10.0 mi SSW 13.8 mph - N/A   Clear